Regional Weather Roundup
Issued by NWS

Home | Current Version | Previous Version | Graphics & Text | Print | Product List | Glossary On
Versions: 1 2 3 4 5 6 7 8 9 10 11 12 13 14 15 16 17 18 19 20 21 22 23 24 25 26 27 28 29 30 31 32 33 34 35 36 37 38 39 40 41 42 43 44 45 46 47 48 49 50
780
ASUS43 KLMK 202002
RWRKY
KENTUCKY REGIONAL WEATHER ROUNDUP
NATIONAL WEATHER SERVICE LOUISVILLE KY
300 PM EST MON FEB 20 2017

NOTE "FAIR" INDICATES FEW OR NO CLOUDS BELOW 12,000 FEET
WITH NO SIGNIFICANT WEATHER AND/OR OBSTRUCTIONS TO VISIBILITY.

KYZ001>023-026-027-061>063-070>075-202100-
WESTERN AND SOUTH CENTRAL KENTUCKY

CITY           SKY/WX    TMP DP  RH WIND       PRES   REMARKS
PADUCAH        MOSUNNY   73  51  46 SE13      30.03F
HENDERSON      SUNNY     72  52  49 S9        30.04F
OWENSBORO      MOSUNNY   71  50  47 S8        30.08F
HOPKINSVILLE   CLOUDY    72  49  44 S6        30.06F
BOWLING GREEN  MOSUNNY   76  43  30 S9        30.08F
GLASGOW        NOT AVBL
$$

KYZ024-025-028>034-038-045-046-053-202100-
NORTH CENTRAL KENTUCKY

CITY           SKY/WX    TMP DP  RH WIND       PRES   REMARKS
LOUISVILLE/SDF PTSUNNY   71  47  42 VRB5      30.08F
LOUISVILLE/LOU SUNNY     71  48  43 VRB7      30.10F
FORT KNOX      SUNNY     72  46  39 SE7       30.07F
$$

KYZ035>037-039>044-047>052-055>060-089>105-202100-
NORTHEAST KENTUCKY

CITY           SKY/WX    TMP DP  RH WIND       PRES   REMARKS
LEXINGTON      SUNNY     70  43  37 E7        30.13F
COVINGTON      PTSUNNY   63  50  62 E8        30.14F
FRANKFORT      SUNNY     71  46  40 SE6       30.11F
$$

KYZ054-064>069-076>088-106>120-202100-
SOUTHEAST KENTUCKY

CITY           SKY/WX    TMP DP  RH WIND       PRES   REMARKS
JACKSON        MOSUNNY   68  42  38 E5        30.15F
LONDON         MOSUNNY   69  37  30 SE3       30.14F
SOMERSET       SUNNY     68  41  37 E3        30.14F
MIDDLESBORO    PTSUNNY   68  43  41 CALM      30.15F
MONTICELLO     PTCLDY    70  46  42 NW8       30.14F
$$





USA.gov is the U.S. government's official web portal to all federal, state and local government web resources and services.